Regional Weather Roundup
Issued by NWS

Home | Current Version | Previous Version | Text Only | Print | Product List | Glossary Off
Versions: 1 2 3 4 5 6 7 8 9 10 11 12 13 14 15 16 17 18 19 20 21 22 23 24 25 26 27 28 29 30 31 32 33 34 35 36 37 38 39 40 41 42 43 44 45 46 47 48 49 50

000
ASUS43 KLOT 050912
RWRIL

ILLINOIS REGIONAL WEATHER ROUNDUP
NATIONAL WEATHER SERVICE CHICAGO/ROMEOVILLE IL
400 AM CDT SUN JUL 05 2015

NOTE: "FAIR" INDICATES FEW OR NO CLOUDS BELOW 12,000 FEET WITH NO
SIGNIFICANT WEATHER AND/OR OBSTRUCTIONS TO VISIBILITY.

* THESE STATIONS ARE NOT UNDER NWS QUALITY CONTROL. THEY ALSO MAY NOT
  REPORT WEATHER SUCH AS PRECIPITATION OR FOG.

ILZ001-002-007-009-015-016-024-051000-
NORTHWEST ILLINOIS

CITY           SKY/WX    TMP DP  RH WIND       PRES   REMARKS
MOLINE         CLEAR     64  59  83 CALM      30.03F
STERLING*      CLEAR     57  55  94 CALM      30.06S
SAVANNA*       CLEAR     60  58  94 CALM      30.04F
$$

ILZ003-004-008-010-011-017-018-051000-
NORTH CENTRAL ILLINOIS

CITY           SKY/WX    TMP DP  RH WIND       PRES   REMARKS
ROCKFORD       CLEAR     62  58  86 CALM      30.06F
FREEPORT*      CLEAR     58  57  94 CALM      30.07S
ROCHELLE*      CLEAR     57  56  97 CALM      30.07S
DE KALB*       CLEAR     60  56  88 CALM      30.07F
PERU*          CLEAR     64  59  82 CALM      30.07S
$$

ILZ005-006-012>014-019>023-051000-
NORTHEAST ILLINOIS

CITY           SKY/WX    TMP DP  RH WIND       PRES   REMARKS
CHICAGO-OHARE  PTCLDY    62  59  90 CALM      30.06R SMOKE
CHICAGO-MIDWAY PTCLDY    68  60  75 CALM      30.06R
AURORA         CLEAR     60  56  86 CALM      30.07R FOG
LANSING*         N/A     62  59  90 CALM      30.07R FOG
JOLIET*        FOG       60  60  99 CALM      30.07R VSB 1/2
WAUKEGAN       CLEAR     60  57  89 SW3       30.05S FOG
DUPAGE AIRPORT CLEAR     61  58  90 CALM      30.06S FOG
KANKAKEE*      CLEAR     62  61  98 E3        30.08R FOG
WHEELING       CLEAR     62  57  83 CALM      30.08R HAZE
MORRIS*        CLEAR     63  61  93 CALM      30.04S FOG
ROMEOVILLE*    CLEAR     62  58  90 CALM      30.07S FOG
NORTHERLY ISL    N/A     68  58  70 CALM        N/A
$$

LMZ740>746-051000-
SOUTHERN LAKE MICHIGAN

STATION/POSITION SKY/WX   TEMP    WIND        PRES    VSBY  WAVE
                          AIR SEA DIR/SP/G                  HT/PER
                          (F)     (DEG/KT/KT) (MB)    (MI)  (FT/S)
HARRISON CRIB              71     280/  1/  2   N/A
BURNHAM HARBOR             67     160/  2/  4   N/A
CALUMET HARBOR             67     180/  3/  4   N/A
BURNS HARBOR               67     190/  6/  8 1018.6R
MICHIGAN CITY              69     150/  8/ 11   N/A
MICHIGAN CITY 6N           65 64  190/  2/  4   N/A           0
ST. JOSEPH                 65 64                N/A           0
$$

ILZ025>027-034>036-040-047-049-050-058-095>099-051000-
WEST-CENTRAL ILLINOIS

CITY           SKY/WX    TMP DP  RH WIND       PRES   REMARKS
QUINCY         CLEAR     66  62  87 S5        30.04S
GALESBURG*     CLEAR     62  60  91 SE3       30.05F
MACOMB*        CLEAR     59  59  99 SE3       30.06F FOG
JACKSONVILLE*  CLEAR     64  62  91 SE3       30.05S
PITTSFIELD*    CLEAR     65  62  90 CALM      30.06S
$$

ILZ028>032-037-038-041>044-048-051>054-059>061-051000-
CENTRAL ILLINOIS

CITY           SKY/WX    TMP DP  RH WIND       PRES   REMARKS
PONTIAC        CLEAR     61  60  98 CALM      30.08R FOG
BLOOMINGTON    CLEAR     65  63  93 SW5       30.08S
DECATUR        CLEAR     60  58  92 CALM      30.06S FOG
PEORIA         CLEAR     65  60  84 CALM      30.06S HAZE
LACON*         CLEAR     60  58  94 CALM      30.05S FOG
LINCOLN*       CLEAR     61  58  91 CALM      30.07S FOG
SPRINGFIELD    CLEAR     65  61  87 CALM      30.05F FOG
TAYLORVILLE      N/A     59  59 100 CALM      30.05S FOG
$$

ILZ033-039-045-046-055>057-062-063-051000-
EAST-CENTRAL ILLINOIS

CITY           SKY/WX    TMP DP  RH WIND       PRES   REMARKS
CHAMPAIGN      CLEAR     59  57  93 NW3       30.07R
DANVILLE*      CLEAR     59  58  97 N5        30.04R FOG
RANTOUL*       CLEAR     65  62  92 CALM      30.08R
MATTOON        CLEAR     62  60  93 CALM      30.05R
PARIS*         PTCLDY    60  60  99 CALM      30.07R FOG
$$

ILZ079-100>102-051000-
SOUTHWEST ILLINOIS

CITY           SKY/WX    TMP DP  RH WIND       PRES   REMARKS
ALTON          CLEAR     62  62 100 CALM      30.05S FOG
BELLEVILLE     CLEAR     65  65 100 CALM      30.04S
CAHOKIA*       CLEAR     65  62  90 SE3       30.04S
SPARTA*        PTCLDY    66  65  96 CALM      30.06S FOG
$$

ILZ064>066-069>071-074>076-080>082-084>086-088>090-092>094-051000-
SOUTH-CENTRAL ILLINOIS

CITY           SKY/WX    TMP DP  RH WIND       PRES   REMARKS
CARBONDALE     FOG       68  66  93 CALM      30.04S VSB 1/4
CAIRO*         MOCLDY    68  68 100 CALM      30.03F FOG
EFFINGHAM*     CLEAR     64  61  91 CALM      30.06S FOG
MARION           N/A     68  68 100 CALM      30.05R FOG
MT. VERNON       N/A     63  57  82 CALM      30.05S VSB 1/2
CENTRALIA*     PTCLDY    63  61  93 CALM      30.05S FOG
SALEM*         PTCLDY    65  63  92 CALM      30.05F FOG
$$

ILZ067-068-072-073-078-083-087-091-051000-
SOUTHEAST ILLINOIS

CITY           SKY/WX    TMP DP  RH WIND       PRES   REMARKS
LAWRENCEVILLE  CLOUDY    67  65  93 NW5       30.04R FOG
FLORA*         CLOUDY    65  65  98 NW5       30.05S FOG
FAIRFIELD*     MOCLDY    67  66  97 CALM      30.03S FOG
HARRISBURG*    CLOUDY    68  68 100 CALM      30.05R FOG
ROBINSON*      MOCLDY    64  63  97 CALM      30.05S FOG
CARMI*         CLOUDY    69  64  83 W5        30.02S HAZE
$$

ABBREVIATIONS USED IN REMARKS
   TC - TEMPERATURE IN CELSIUS
  WCI - WIND CHILL INDEX
   HX - HEAT INDEX
  VSB - VISIBILITY
$$



USA.gov is the U.S. government's official web portal to all federal, state and local government web resources and services.